Regional Weather Roundup
Issued by NWS Northern Indiana

Home | Current Version | Previous Version | Text Only | Print | Product List | Glossary Off
Versions: 1 2 3 4 5 6 7 8 9 10 11 12 13 14 15 16 17 18 19 20 21 22 23 24 25 26 27 28 29 30 31 32 33 34 35 36 37 38 39 40 41 42 43 44 45 46 47 48 49 50

000
ASUS43 KIWX 260310
RWRIWX

KIWX WEATHER ROUNDUP
NATIONAL WEATHER SERVICE NORTHERN INDIANA
1000 PM EST SUN JAN 25 2015

NOTE: "FAIR" INDICATES FEW OR NO CLOUDS BELOW 12,000 FEET WITH NO
SIGNIFICANT WEATHER AND/OR OBSTRUCTIONS TO VISIBILITY.

* THESE STATIONS ARE NOT UNDER NWS QUALITY CONTROL. THEY ALSO MAY NOT
  REPORT WEATHER SUCH AS PRECIPITATION OR FOG.

INZ001>027-260400-
NORTHERN INDIANA

CITY           SKY/WX    TMP DP  RH WIND       PRES   REMARKS
GARY*          CLOUDY    28  18  65 N15       29.98R WCI  17
VALPARAISO     CLOUDY    25  18  74 N6        29.94R WCI  18
MICHIGAN CITY* CLOUDY    27  14  59 N6        29.97R WCI  20
LAPORTE*       CLOUDY    26  18  72 NE9       29.94R WCI  17
KNOX*          CLOUDY    24  11  57 NE8       29.93R WCI  15
SOUTH BEND     CLOUDY    24  14  65 NE8       29.94R WCI  15
GOSHEN         CLOUDY    24  17  74 NE12      29.91S WCI  13
MONTICELLO*    CLOUDY    25  22  86 NE14G20   29.89S WCI  13
LOGANSPORT*    CLOUDY    23  21  93 NE9       29.90R WCI  13
ROCHESTER*     CLOUDY    27  23  86 NE12      29.90S WCI  16
WARSAW*        CLOUDY    23  19  86 NE9G20    29.91R WCI  13
ANGOLA*        CLOUDY    21  10  63 E8        29.90R WCI  12
FORT WAYNE     LGT SNOW  20  16  84 NE14      29.90R FOG     WCI   7
HUNTINGTON*    LGT SNOW  20  13  74 NE13      29.89R WCI   7
PERU/GRISSOM   CLOUDY    22  18  83 NE16      29.87R WCI   8
MARION*        CLOUDY    20  17  85 NE18G25   29.86R WCI   5

$$
INZ028>050-260400-
CENTRAL INDIANA

CITY           SKY/WX    TMP DP  RH WIND       PRES   REMARKS
LAFAYETTE      CLOUDY    25  21  85 NE15G22   29.89S WCI  13
KOKOMO*        CLOUDY    21  16  79 NE18G25   29.88R WCI   6
MUNCIE*        LGT SNOW  20  17  88 NE20      29.82R FOG     WCI   4
INDIANAPOLIS   FLURRIES  22  20  92 N18       29.80R WCI   7

$$
MIZ043>046-050>051-056>058-064>065-071>073-077>080-260400-
SOUTHWEST LOWER MICHIGAN

CITY           SKY/WX    TMP DP  RH WIND       PRES   REMARKS
BATTLE CREEK   PTCLDY    20   8  60 NE10      29.96R WCI   9
BENTON HARBOR  PTCLDY    19  12  74 NE7       29.98R WCI  10
COLDWATER*     CLOUDY    20   6  53 NE13G18   29.92S WCI   8
HILLSDALE*     CLOUDY    19   6  58 NE12      29.90F WCI   7
HOLLAND        CLEAR     20  10  65 NE7       30.01R WCI  11
GRAND RAPIDS   PTCLDY    17  10  74 E10       30.00S WCI   5
KALAMAZOO      PTCLDY    19  11  70 NE9       29.96R WCI   8
STURGIS*       MOCLDY    21  12  68 NE12      29.91S WCI   9
THREE RIVERS*  FAIR      22  10  60 NE8       29.94R WCI  12

$$
OHZ001>008-015>018-024>025-260400-
NORTHWEST OHIO

CITY           SKY/WX    TMP DP  RH WIND       PRES   REMARKS
WAUSEON*       CLOUDY    19   9  63 NE15      29.93R WCI   5
DEFIANCE       CLOUDY    19  13  77 NE16G22   29.92S WCI   4
FINDLAY        LGT SNOW  20  15  81 NE18      29.87R VSB 1   WCI   5
TOLEDO EXPRESS FLURRIES  18  11  74 NE13      29.93R WCI   5
TOLEDO METCALF CLOUDY    18   9  68 NE9G21    29.95R WCI   7
LIMA           LGT SNOW  21  17  84 NE18G25   29.83S VSB 3/4 WCI   6

$$
AND FOR LAKE MICHIGAN COASTAL AND OPEN LAKE BUOY OBSERVATIONS

STATION/POSITION TEMP    WIND        PRES    VSBY  WAVE
                 AIR SEA DIR/SP/G                  HT/PER
                 (F)     (DEG/KT/KT) (MB)    (MI)  (FT/S)
CALUMET HARBOR    27      20/ 16/ 20   N/A
MICHIGAN CITY     25      20/ 17/ 19   N/A
SAINT JOSEPH      20      10/  8/ 11 1015.9R

$$
&&


USA.gov is the U.S. government's official web portal to all federal, state and local government web resources and services.